This demonstration page uses our WeatherBlox Daily Observations layout. Learn more.

Left ArrowRight Arrow

36.19886, -115.1175

Hourly Observations for January 30, 2021

Temp ( °F °C ) Dew Point ( °F °C ) Humidity (%) Winds ( mph kmh ) Pressure ( in mb ) Visibility ( mi km ) Precip ( " mm )
12:53 am 00:53 Clear 43 6.1 26 -3.3 51 51 Calm 30.06 1018 10 16.0934 0 0
1:53 am 01:53 Clear 40 4.4 26 -3.3 58 58 Calm 30.07 1018 10 16.0934 0 0
2:53 am 02:53 Clear 38 3.3 26 -3.3 62 62 NNW 6 9 30.09 1019 10 16.0934 0 0
3:53 am 03:53 Clear 37 2.8 26 -3.3 65 65 W 5 7 30.12 1020 10 16.0934 0 0
4:53 am 04:53 Clear 39 3.9 27 -2.8 62 62 NNW 7 11 30.14 1021 10 16.0934 0 0
5:53 am 05:53 Clear 37 2.8 27 -2.8 67 67 WNW 8 13 30.18 1022 10 16.0934 0 0
6:53 am 06:53 Sunny 38 3.3 27 -2.8 65 65 WNW 6 9 30.2 1023 10 16.0934 0 0
7:53 am 07:53 Sunny 41 5 27 -2.8 57 57 WNW 6 9 30.23 1024 10 16.0934 0 0
8:53 am 08:53 Sunny 46 7.8 29 -1.7 51 51 Calm 30.24 1024 10 16.0934 0 0
9:53 am 09:53 Sunny 48 8.9 30 -1.1 50 50 SSE 3 6 30.26 1025 10 16.0934 0 0
10:53 am 10:53 Sunny 50 10 32 0 50 50 SE 6 9 30.27 1025 10 16.0934 0 0
11:53 am 11:53 Sunny 53 11.7 31 -0.6 43 43 E 8 13 30.24 1024 10 16.0934 0 0
12:53 pm 12:53 Sunny 53 11.7 30 -1.1 41 41 SE 6 9 30.22 1023 10 16.0934 0 0
1:53 pm 13:53 Sunny 55 12.8 29 -1.7 37 37 Calm 30.22 1023 10 16.0934 0 0
2:53 pm 14:53 Sunny 56 13.3 28 -2.2 34 34 Calm 30.22 1024 10 16.0934 0 0
3:53 pm 15:53 Sunny 56 13.3 28 -2.2 34 34 E 5 7 30.24 1024 10 16.0934 0 0
4:53 pm 16:53 Sunny 54 12.2 28 -2.2 37 37 ENE 6 9 30.24 1024 10 16.0934 0 0
5:53 pm 17:53 Clear 52 11.1 28 -2.2 40 40 ENE 5 7 30.25 1025 10 16.0934 0 0
6:53 pm 18:53 Clear 51 10.6 28 -2.2 41 41 ENE 5 7 30.26 1025 10 16.0934 0 0
7:53 pm 19:53 Clear 49 9.4 29 -1.7 46 46 W 6 9 30.28 1026 10 16.0934 0 0
8:53 pm 20:53 Clear 46 7.8 30 -1.1 54 54 W 3 6 30.29 1026 10 16.0934 0 0
9:53 pm 21:53 Clear 43 6.1 30 -1.1 60 60 NW 6 9 30.3 1026 10 16.0934 0 0
10:53 pm 22:53 Clear 42 5.6 30 -1.1 62 62 NNW 7 11 30.32 1027 10 16.0934 0 0
11:53 pm 23:53 Clear 42 5.6 30 -1.1 62 62 NW 6 9 30.31 1026 10 16.0934 0 0

Powered by AerisWeather